Wind_Speed
21 20 18 15 15 15 13 12 12 12 10 9 9 10 9 7 6 5 4 4 4 4 4 4 5 6 8 9 11 13 14 15 15 15 15 16 16 15 14 13 12 11 11 11
19 18 17 17 15 14 13 12 12 11 11 10 9 9 8 6 5 5 4 4 3 3 3 4 5 6 8 10 12 13 14 15 15 16 16 16 16 16 15 14 13 12 11 10
18 18 17 16 14 13 13 12 12 11 10 9 8 8 7 6 5 5 4 3 3 3 3 4 5 6 8 10 12 13 14 15 15 16 16 16 16 16 16 15 14 12 11 10
19 19 17 15 14 13 12 12 11 10 9 8 8 7 7 6 5 5 4 3 3 3 3 4 5 6 8 10 12 13 14 15 15 16 16 17 17 17 16 16 14 12 11 10
18 17 16 15 14 12 11 11 10 9 8 8 8 7 7 6 5 5 4 4 3 3 3 4 5 6 7 10 11 13 14 15 15 16 16 17 17 17 16 16 15 13 12 10
16 15 15 13 12 11 10 10 9 9 9 9 9 8 6 6 6 5 5 4 4 3 3 3 4 6 7 9 11 12 13 14 16 16 16 17 17 17 16 16 15 14 13 11
14 13 12 11 10 10 9 9 9 9 9 10 9 8 7 6 6 6 6 5 4 4 3 3 4 5 7 8 10 11 13 14 16 16 17 17 17 17 16 15 15 15 14 12
12 11 10 10 9 9 9 9 9 10 10 10 9 8 7 7 6 6 6 5 5 4 4 3 4 5 6 8 9 10 12 14 15 16 16 17 17 17 17 16 15 15 15 14
10 9 8 7 7 8 8 9 9 10 9 8 8 8 8 8 7 7 6 6 5 4 4 3 3 4 6 7 9 10 11 13 15 15 16 16 17 17 17 17 16 15 14 14
7 6 6 6 7 7 8 9 9 9 8 8 8 9 9 9 9 8 7 6 5 5 4 3 3 4 5 7 8 9 11 12 14 15 15 16 16 17 16 17 17 16 15 14
5 5 6 7 7 8 9 9 9 9 9 8 8 9 10 10 10 9 8 7 7 5 4 4 3 4 5 6 7 8 10 12 13 14 15 15 15 16 16 16 16 17 16 15
5 6 7 8 8 9 10 10 10 10 9 9 9 9 11 11 10 10 10 9 8 7 5 4 4 4 5 6 7 8 9 11 12 13 14 15 15 15 16 16 16 16 16 16
5 6 7 9 10 10 10 10 10 10 10 10 10 10 11 12 11 11 11 10 9 8 7 6 5 5 5 5 6 7 8 10 11 12 13 14 14 15 15 16 16 16 16 16
7 8 9 10 11 11 11 12 12 12 12 11 11 11 11 12 12 12 11 11 10 9 8 7 6 5 5 5 6 6 8 9 10 11 12 13 13 14 15 15 15 16 16 16
9 10 11 12 13 13 13 13 13 13 13 12 12 12 12 13 13 13 12 12 11 10 9 8 7 7 6 6 6 6 7 8 9 11 11 12 13 13 14 14 15 15 15 15
11 12 12 13 13 14 13 13 14 14 14 14 13 12 13 15 14 13 13 12 12 11 10 9 9 8 7 7 7 7 7 8 9 10 11 12 12 13 13 14 14 14 14 14
13 13 14 14 15 15 14 14 15 15 14 15 14 13 15 15 15 14 14 13 13 13 12 11 10 9 9 8 8 8 8 8 9 10 10 11 12 12 13 13 14 14 14 14
14 15 16 16 16 17 14 15 16 16 15 16 15 15 16 16 16 16 15 15 15 14 13 13 12 11 10 10 9 9 9 9 9 10 10 11 12 12 13 13 14 14 14 14
17 17 18 18 18 17 16 17 17 17 17 18 17 17 18 18 17 17 17 17 16 16 15 14 14 13 12 11 11 11 10 10 10 10 11 11 12 12 13 13 14 14 14 14
19 20 21 20 21 20 17 18 19 19 19 20 19 19 19 19 18 19 19 19 18 18 17 16 16 15 14 13 13 12 12 12 11 11 11 12 12 13 13 14 14 14 15 15
22 23 23 23 24 22 20 21 21 21 22 22 22 21 21 21 21 20 20 20 20 20 19 18 18 17 16 16 15 15 14 14 13 13 13 13 14 14 14 14 15 15 15 15
26 26 26 26 27 25 24 24 24 25 25 24 24 24 23 23 23 22 22 22 22 22 21 20 20 19 19 18 17 17 16 16 15 15 15 15 15 15 15 15 16 16 16 16
29 30 30 30 29 29 29 29 28 28 28 27 27 27 26 26 26 25 24 24 24 24 23 22 22 21 21 20 20 19 18 18 17 17 17 16 16 17 17 17 17 17 17 17
33 33 34 34 32 33 33 32 32 32 31 31 30 30 30 29 28 28 28 27 26 26 26 25 24 24 23 23 22 22 21 20 19 19 19 18 18 18 18 18 18 18 19 19
37 38 38 38 37 37 36 36 37 36 35 35 34 33 33 32 31 31 31 30 29 29 28 28 27 26 26 25 25 24 23 23 22 22 21 20 20 20 20 20 20 20 20 21
40 41 43 42 41 42 40 40 40 40 39 39 38 37 36 36 34 34 34 33 33 32 31 30 30 29 28 28 27 27 26 25 25 24 23 23 23 22 22 22 22 22 22 22
Wind_Direction
202 203 201 204 209 214 219 229 243 257 263 267 276 280 283 283 276 271 270 277 289 298 313 329 340 347 349 351 351 351 352 352 352 349 347 346 345 344 341 335 328 321 308 294
191 191 193 200 205 209 217 228 242 254 261 266 275 280 278 281 278 272 267 270 280 297 313 331 342 346 349 350 351 351 353 355 355 353 353 351 349 348 346 343 338 331 319 305
182 186 191 198 203 209 217 228 241 253 262 268 278 281 279 277 273 265 258 262 276 295 310 328 340 346 349 352 354 355 356 358 358 358 357 356 354 354 352 350 348 342 333 322
179 183 188 194 201 209 218 230 243 255 262 275 281 280 278 275 269 258 251 256 273 286 298 320 335 344 351 355 356 358 359 1 1 0 359 360 359 359 359 357 355 351 345 339
177 182 187 194 203 211 220 235 248 258 264 275 281 279 273 270 262 252 246 253 267 274 286 309 328 341 350 355 358 360 2 3 4 3 3 2 2 1 2 2 3 1 358 353
174 181 188 196 206 214 225 240 251 263 271 277 275 274 267 263 252 246 245 253 263 269 281 301 322 337 347 353 358 2 4 6 7 6 6 5 5 5 5 6 8 8 7 4
173 182 190 200 209 215 230 245 259 271 278 278 269 267 260 252 242 240 246 255 260 266 279 294 319 335 345 352 358 1 6 7 7 7 7 8 9 9 9 10 12 13 13 13
175 186 196 206 215 226 239 248 255 265 274 274 265 261 253 245 236 238 245 252 257 263 270 286 313 331 342 350 355 359 4 7 8 8 9 10 11 12 14 14 13 16 18 17
178 191 202 213 222 233 243 252 261 267 271 269 260 253 248 242 234 235 241 246 251 254 260 280 307 328 341 347 351 356 1 6 8 9 11 12 13 15 16 16 16 16 17 18
183 201 216 227 236 242 251 258 262 265 269 267 255 250 247 243 240 236 237 239 243 244 252 273 299 324 337 344 348 354 0 4 7 10 12 13 15 16 17 18 19 19 17 17
198 220 234 241 249 253 255 260 260 262 262 261 255 249 246 244 241 239 237 237 239 239 247 264 290 318 331 339 346 353 359 3 6 9 11 13 14 15 17 18 19 20 21 20
224 237 250 256 258 260 260 260 261 264 263 259 257 253 247 245 241 240 238 237 236 239 246 260 280 305 320 331 340 349 356 2 6 9 12 13 14 14 16 17 17 18 19 21
250 255 262 269 270 267 264 261 262 262 262 261 260 257 249 247 244 242 239 236 236 240 246 255 271 291 309 320 330 341 351 358 3 8 11 12 13 14 15 16 17 18 19 20
264 264 264 267 269 269 266 264 265 264 264 262 258 254 250 248 244 243 241 238 237 241 247 253 264 279 295 310 320 331 342 351 357 1 4 7 10 11 12 13 14 15 17 19
272 270 271 271 272 270 268 267 267 266 264 262 257 254 248 247 245 243 242 240 240 242 246 252 260 271 284 297 309 320 331 341 348 353 357 359 2 4 6 8 9 10 11 13
275 274 274 274 273 271 268 267 266 265 263 262 259 254 248 248 246 244 243 241 240 242 246 252 258 266 277 287 296 306 318 330 338 345 351 354 356 357 359 1 3 4 6 7
277 276 275 275 272 271 268 265 264 264 262 261 258 252 248 249 247 244 244 242 240 243 247 252 258 262 270 279 287 294 305 317 327 335 342 347 349 351 353 355 356 357 358 359
281 278 276 276 272 271 269 263 261 261 259 258 257 254 250 247 246 246 246 245 243 244 247 252 256 261 266 273 280 287 295 305 316 325 332 336 339 343 346 347 349 350 351 352
283 280 278 277 275 273 267 265 262 259 257 257 257 254 251 248 248 248 248 247 245 246 248 251 255 259 264 269 274 281 288 296 305 314 322 328 332 335 337 339 341 343 343 344
279 278 277 276 275 274 271 267 265 262 258 257 257 255 252 249 248 247 248 248 248 249 250 252 255 258 262 265 270 275 282 289 296 303 310 318 324 327 330 332 333 335 336 336
277 275 274 274 273 273 272 269 266 262 259 257 256 254 252 251 249 249 249 249 250 251 251 253 255 258 260 264 268 272 277 283 289 296 301 308 313 318 322 325 327 328 328 328
276 274 272 271 270 272 270 268 266 263 260 258 256 255 253 253 252 250 249 250 250 250 251 253 255 257 259 262 266 269 274 279 284 289 294 300 305 309 313 316 318 321 322 323
275 273 271 269 268 268 267 265 264 263 260 258 257 255 254 254 253 252 251 251 250 250 251 252 254 256 258 260 263 266 270 274 279 284 288 293 298 302 305 308 311 314 316 317
273 272 270 269 267 266 264 263 263 262 260 258 257 255 255 255 254 253 252 252 251 251 252 252 253 254 256 258 261 263 267 270 274 278 283 288 292 296 300 304 306 308 311 312
274 271 270 268 267 264 262 261 260 260 260 259 258 257 256 256 255 254 253 252 252 252 252 253 254 255 256 258 260 262 264 267 270 274 279 283 288 291 295 299 302 304 306 307
273 271 269 267 266 264 261 259 259 259 259 258 257 257 257 257 256 255 255 254 253 253 253 253 254 255 256 257 259 261 263 265 268 272 275 279 283 287 291 294 297 300 302 303
Height
5819 5825 5830 5835 5838 5841 5843 5845 5846 5847 5847 5848 5848 5847 5846 5846 5845 5845 5844 5843 5843 5842 5841 5840 5838 5836 5834 5831 5828 5824 5821 5817 5813 5809 5805 5801 5797 5793 5790 5786 5783 5781 5778 5777
5819 5824 5829 5832 5835 5838 5841 5843 5844 5844 5845 5845 5845 5845 5845 5844 5843 5843 5843 5842 5842 5841 5840 5839 5837 5835 5833 5830 5827 5823 5820 5816 5812 5808 5804 5799 5796 5792 5788 5784 5781 5778 5776 5774
5818 5823 5827 5831 5834 5837 5839 5840 5841 5842 5843 5843 5844 5844 5843 5843 5842 5841 5841 5841 5840 5840 5839 5838 5836 5834 5832 5829 5826 5822 5819 5815 5811 5807 5803 5798 5795 5791 5787 5783 5780 5776 5773 5771
5817 5821 5826 5829 5832 5835 5837 5838 5839 5840 5841 5842 5842 5842 5842 5841 5840 5840 5840 5840 5839 5839 5838 5837 5835 5833 5831 5828 5825 5822 5818 5814 5810 5806 5802 5798 5794 5790 5786 5782 5778 5775 5772 5769
5818 5821 5825 5828 5831 5833 5835 5836 5838 5839 5839 5840 5840 5840 5841 5839 5839 5839 5839 5838 5838 5837 5837 5836 5834 5832 5830 5827 5825 5821 5818 5814 5810 5806 5802 5798 5793 5789 5785 5781 5778 5774 5771 5768
5818 5822 5825 5827 5830 5832 5834 5835 5836 5837 5838 5839 5838 5839 5839 5838 5838 5838 5838 5837 5837 5836 5835 5834 5833 5831 5829 5827 5824 5821 5817 5814 5810 5806 5802 5798 5793 5789 5785 5781 5777 5774 5770 5767
5820 5822 5825 5827 5829 5831 5833 5835 5836 5836 5837 5837 5836 5836 5837 5836 5836 5836 5836 5836 5835 5835 5834 5833 5832 5830 5829 5826 5824 5821 5817 5814 5810 5806 5802 5798 5793 5789 5785 5781 5777 5774 5770 5767
5821 5824 5825 5827 5828 5830 5831 5833 5835 5836 5835 5835 5834 5834 5835 5834 5834 5834 5834 5834 5834 5833 5833 5832 5831 5829 5828 5825 5823 5820 5817 5814 5810 5806 5802 5798 5794 5790 5786 5782 5778 5774 5771 5768
5822 5824 5825 5826 5827 5829 5830 5831 5832 5833 5832 5833 5833 5833 5833 5832 5832 5832 5832 5832 5832 5832 5831 5830 5829 5828 5827 5825 5822 5820 5817 5814 5810 5806 5802 5798 5794 5790 5786 5782 5779 5775 5772 5769
5823 5824 5825 5826 5827 5828 5829 5829 5830 5830 5830 5831 5831 5831 5831 5830 5830 5831 5831 5831 5831 5830 5830 5829 5828 5827 5826 5824 5822 5819 5816 5813 5810 5806 5803 5799 5795 5791 5787 5783 5780 5776 5773 5769
5823 5825 5825 5825 5826 5826 5827 5828 5827 5828 5828 5829 5829 5831 5828 5828 5828 5829 5829 5829 5829 5829 5829 5828 5827 5826 5824 5823 5821 5819 5816 5813 5810 5807 5803 5799 5796 5792 5788 5785 5781 5777 5774 5770
5823 5824 5824 5825 5825 5824 5825 5825 5825 5826 5826 5825 5826 5830 5826 5826 5826 5826 5827 5827 5827 5827 5827 5826 5826 5825 5823 5822 5820 5818 5816 5813 5810 5807 5803 5800 5796 5793 5789 5785 5782 5778 5775 5772
5822 5823 5824 5824 5825 5823 5822 5822 5822 5823 5823 5823 5823 5827 5823 5823 5823 5824 5824 5825 5825 5825 5825 5825 5824 5823 5822 5821 5819 5817 5815 5812 5810 5807 5803 5800 5797 5793 5790 5786 5783 5780 5776 5773
5820 5821 5822 5822 5821 5820 5820 5820 5820 5820 5820 5820 5820 5821 5821 5820 5820 5821 5822 5822 5823 5823 5823 5823 5822 5821 5820 5819 5818 5816 5814 5812 5809 5806 5803 5800 5797 5794 5791 5787 5784 5781 5777 5774
5818 5819 5818 5818 5817 5817 5817 5817 5816 5816 5816 5816 5817 5817 5817 5817 5817 5818 5819 5819 5820 5820 5820 5820 5820 5819 5818 5817 5816 5815 5813 5811 5808 5806 5803 5800 5797 5794 5791 5788 5785 5782 5779 5776
5815 5815 5815 5815 5814 5813 5813 5813 5813 5813 5813 5813 5813 5814 5813 5813 5814 5815 5815 5816 5817 5817 5818 5818 5817 5817 5816 5815 5814 5813 5811 5809 5807 5805 5802 5799 5797 5794 5791 5788 5785 5782 5779 5776
5812 5812 5811 5811 5810 5809 5810 5810 5809 5809 5809 5809 5809 5811 5809 5809 5810 5811 5812 5813 5814 5814 5815 5815 5814 5814 5814 5813 5812 5811 5809 5808 5806 5803 5801 5799 5796 5793 5791 5788 5785 5782 5779 5776
5809 5808 5807 5807 5807 5805 5808 5805 5804 5804 5805 5804 5805 5805 5805 5805 5806 5807 5808 5809 5810 5810 5811 5811 5811 5811 5810 5810 5809 5808 5807 5805 5804 5802 5800 5797 5795 5792 5790 5787 5784 5781 5779 5776
5804 5803 5802 5802 5801 5801 5802 5801 5800 5800 5800 5800 5800 5801 5801 5801 5802 5803 5804 5804 5805 5806 5807 5807 5807 5807 5807 5806 5806 5805 5804 5803 5801 5799 5797 5795 5793 5790 5788 5785 5783 5780 5777 5775
5800 5798 5798 5797 5796 5796 5798 5796 5795 5796 5795 5795 5795 5795 5796 5797 5798 5799 5799 5800 5801 5801 5802 5802 5803 5803 5803 5802 5802 5801 5800 5799 5798 5796 5795 5793 5790 5788 5786 5783 5781 5778 5776 5773
5794 5793 5792 5791 5789 5790 5791 5790 5790 5791 5790 5789 5789 5789 5790 5791 5792 5793 5794 5794 5795 5796 5796 5797 5798 5798 5798 5798 5797 5797 5796 5795 5794 5793 5791 5789 5787 5785 5783 5781 5778 5776 5773 5771
5787 5786 5785 5784 5783 5786 5783 5783 5783 5783 5782 5782 5782 5783 5784 5784 5785 5786 5787 5788 5789 5790 5790 5791 5792 5792 5792 5792 5792 5792 5791 5791 5790 5788 5787 5785 5784 5782 5780 5778 5775 5773 5770 5768
5779 5778 5776 5777 5778 5776 5775 5774 5774 5774 5774 5774 5775 5776 5776 5777 5778 5779 5780 5781 5782 5783 5783 5784 5785 5785 5786 5786 5786 5786 5786 5785 5784 5783 5782 5781 5779 5778 5776 5774 5771 5769 5767 5764
5768 5767 5766 5766 5766 5766 5765 5764 5764 5764 5765 5765 5766 5767 5768 5769 5770 5771 5772 5773 5774 5775 5776 5777 5777 5778 5779 5779 5779 5779 5779 5779 5778 5777 5776 5775 5774 5772 5771 5769 5767 5765 5762 5760
5757 5755 5754 5754 5755 5754 5754 5754 5753 5754 5754 5755 5756 5757 5758 5759 5761 5762 5763 5764 5765 5766 5768 5769 5769 5770 5771 5771 5772 5772 5772 5772 5772 5771 5770 5769 5768 5767 5765 5763 5761 5759 5757 5755
5744 5742 5740 5740 5741 5740 5741 5742 5741 5742 5743 5744 5745 5747 5748 5749 5750 5751 5753 5754 5755 5757 5758 5759 5761 5762 5762 5763 5763 5764 5764 5764 5764 5764 5763 5762 5761 5760 5759 5757 5755 5753 5751 5749